Location: Amsterdam
(30.7274°N, 84.4357°W)
Time: 20:07:36
(UTC+00:00)

Tiros 1 despin weight - Pass Details

Date: 22 February 2026
Orbit: 556 x 593 km, 48.2° (Epoch: 3 March)

Event Time Altitude Azimuth Distance (km) Brightness Sun altitude
Enters shadow 03:04:23 - 290° (WNW) 2,735 ? -46.2°
Rises 03:04:24 0° 290° (WNW) 2,733 - -46.2°
Reaches altitude 10° 03:07:23 10° 268° (W) 1,839 - -46.8°
Maximum altitude 03:09:54 16° 231° (SW) 1,520 - -47.3°
Drops below altitude 10° 03:12:24 10° 194° (SSW) 1,844 - -47.9°
Sets 03:15:25 0° 172° (S) 2,744 - -48.5°
